Grant County, OR

8:31 AM PDT on August 16, 2017 (GMT -0700)
Grant County Regional

Weather History for KGCD - September, 2013

Change the Weather History Date:

Tuesday, September 3, 2013

  Actual Average (KBNO) Record (KBNO)
Temperature  
Mean Temperature 74 °F -  
Max Temperature 86 °F 77 °F 97 °F (1988)
Min Temperature 64 °F 38 °F 27 °F (1980)
Cooling Degree Days 10    
Growing Degree Days 24 (Base 50)    
Moisture  
Dew Point 54 °F    
Average Humidity 50    
Maximum Humidity 79    
Minimum Humidity 31    
Precipitation  
Precipitation 0.04 in - - ()
Sea Level Pressure  
Sea Level Pressure 30.00 in    
Wind  
Wind Speed 9 mph (SSE)    
Max Wind Speed 16 mph    
Max Gust Speed 24 mph    
Visibility 10 miles    
Events Rain , Thunderstorm    
Averages and records for this station are not official NWS values.
T = Trace of Precipitation, MM = Missing Value Source: NWS Daily Summary

Daily Weather History Graph

Daily Weather History Graph

Search for Another Location

Airport or City:

Trip Planner

Search our weather history database for the weather conditions in past years. The results will help you decide how hot, cold, wet, or windy it might be!

Date:

Astronomy

Sep. 03, 2013 Rise Set
Actual Time 6:21 AM PDT 7:27 PM PDT
Civil Twilight 5:51 AM PDT 7:57 PM PDT
Nautical Twilight 5:15 AM PDT 8:33 PM PDT
Astronomical Twilight 4:38 AM PDT 9:10 PM PDT
Moon 4:38 AM PDT (9/3) 6:18 PM PDT (9/3)
Length of Visible Light 14h 06m
Length of Day
13h 06m
Waning Crescent, 3% of the Moon is Illuminated
Sep 3
Waning Crescent
Sep 5
New
Sep 12
First Quarter
Sep 19
Full
Sep 26
Last Quarter

Hourly Weather History & Observations

Time (PDT) Temp. Heat Index Dew Point Humidity Pressure Visibility Wind Dir Wind Speed Gust Speed Precip Events Conditions
12:15 AM 69.6 °F - 49.5 °F 49% 29.99 in 10.0 mi South 9.2 mph - N/A   Clear
12:35 AM 70.2 °F - 49.5 °F 48% 29.99 in 10.0 mi SSE 11.5 mph 20.7 mph N/A   Clear
12:55 AM 69.8 °F - 50.0 °F 49% 29.99 in 10.0 mi SSE 12.7 mph - N/A   Clear
1:15 AM 69.6 °F - 50.7 °F 51% 29.99 in 10.0 mi SSE 12.7 mph - N/A   Clear
1:35 AM 69.1 °F - 51.8 °F 54% 29.99 in 10.0 mi SSE 16.1 mph - N/A   Clear
1:55 AM 69.3 °F - 52.3 °F 55% 29.99 in 10.0 mi SSE 11.5 mph - N/A   Clear
2:15 AM 70.7 °F - 53.1 °F 54% 30.00 in 10.0 mi SSE 13.8 mph - N/A   Clear
2:35 AM 70.5 °F - 53.1 °F 54% 29.99 in 10.0 mi SSE 10.4 mph 17.3 mph N/A   Clear
2:55 AM 70.0 °F - 52.9 °F 55% 30.00 in 10.0 mi East 5.8 mph - N/A   Clear
3:15 AM 71.8 °F - 52.0 °F 50% 30.00 in 10.0 mi SSE 11.5 mph 18.4 mph N/A   Clear
3:35 AM 71.8 °F - 51.8 °F 49% 29.99 in 10.0 mi South 8.1 mph 23.0 mph N/A   Clear
3:55 AM 72.0 °F - 51.3 °F 48% 29.99 in 10.0 mi South 16.1 mph 21.9 mph N/A   Clear
4:15 AM 70.9 °F - 52.0 °F 51% 30.00 in 10.0 mi SE 6.9 mph - N/A   Scattered Clouds
4:35 AM 69.4 °F - 52.0 °F 54% 29.99 in 10.0 mi ESE 9.2 mph - N/A   Overcast
4:55 AM 70.7 °F - 51.8 °F 51% 29.98 in 10.0 mi SE 8.1 mph 23.0 mph N/A   Mostly Cloudy
5:15 AM 71.1 °F - 51.1 °F 49% 30.00 in 10.0 mi NE 4.6 mph - N/A   Scattered Clouds
5:35 AM 72.0 °F - 50.5 °F 47% 29.99 in 10.0 mi East 8.1 mph - N/A   Mostly Cloudy
5:55 AM 72.0 °F - 50.0 °F 46% 30.00 in 10.0 mi South 10.4 mph 16.1 mph N/A   Mostly Cloudy
6:15 AM 68.2 °F - 54.3 °F 61% 30.01 in 10.0 mi South 10.4 mph - N/A Rain Rain
6:35 AM 66.7 °F - 54.7 °F 65% 30.01 in 7.0 mi SSE 11.5 mph 24.2 mph 0.01 in Rain Light Rain
6:55 AM 65.5 °F - 56.3 °F 72% 30.02 in 10.0 mi WNW 4.6 mph - 0.01 in   Overcast
7:15 AM 67.5 °F - 54.9 °F 64% 30.03 in 10.0 mi NW 8.1 mph - 0.01 in Rain Rain
7:35 AM 65.1 °F - 57.4 °F 76% 30.03 in 10.0 mi SE 8.1 mph - 0.03 in Rain Light Rain
7:55 AM 64.9 °F - 58.5 °F 79% 30.04 in 10.0 mi Calm Calm - 0.03 in   Mostly Cloudy
8:15 AM 67.6 °F - 59.7 °F 76% 30.04 in 10.0 mi NNW 4.6 mph - N/A   Mostly Cloudy
8:35 AM 69.4 °F - 58.3 °F 68% 30.04 in 10.0 mi SSE 4.6 mph - N/A   Scattered Clouds
8:55 AM 70.7 °F - 57.4 °F 63% 30.04 in 10.0 mi East 4.6 mph - N/A   Mostly Cloudy
9:15 AM 70.7 °F - 58.5 °F 65% 30.04 in 10.0 mi Calm Calm - N/A   Overcast
9:35 AM 72.3 °F - 56.3 °F 57% 30.03 in 10.0 mi NE 4.6 mph - N/A   Mostly Cloudy
9:55 AM 73.6 °F - 55.8 °F 54% 30.03 in 10.0 mi NE 4.6 mph - N/A   Scattered Clouds
10:15 AM 76.6 °F - 57.2 °F 51% 30.03 in 10.0 mi ESE 3.5 mph - N/A   Scattered Clouds
10:35 AM 76.6 °F - 56.7 °F 50% 30.03 in 10.0 mi SSE 4.6 mph - N/A   Scattered Clouds
10:55 AM 78.8 °F - 56.1 °F 46% 30.03 in 10.0 mi SE 10.4 mph 18.4 mph N/A   Clear
11:15 AM 79.3 °F - 55.9 °F 44% 30.03 in 10.0 mi South 11.5 mph 20.7 mph N/A   Clear
11:35 AM 80.2 °F 80.4 °F 55.8 °F 43% 30.03 in 10.0 mi SSE 9.2 mph 18.4 mph N/A   Clear
11:55 AM 81.5 °F 80.9 °F 54.5 °F 39% 30.03 in 10.0 mi SSE 15.0 mph 20.7 mph N/A   Clear
12:15 PM 81.5 °F 80.9 °F 54.0 °F 39% 30.02 in 10.0 mi South 12.7 mph 24.2 mph N/A   Clear
12:35 PM 82.0 °F 81.3 °F 54.1 °F 38% 30.01 in 10.0 mi SSW 9.2 mph 21.9 mph N/A   Scattered Clouds
12:55 PM 79.9 °F - 53.4 °F 40% 30.01 in 10.0 mi South 10.4 mph 20.7 mph N/A   Mostly Cloudy
1:15 PM 83.3 °F 82.1 °F 53.8 °F 36% 30.01 in 10.0 mi SSE 12.7 mph - N/A   Scattered Clouds
1:35 PM 84.6 °F - 52.9 °F 33% 30.00 in 10.0 mi SSW 6.9 mph 18.4 mph N/A   Clear
1:55 PM 85.3 °F - 52.2 °F 32% 30.00 in 10.0 mi SSE 12.7 mph 19.6 mph N/A   Clear
2:15 PM 82.9 °F - 50.2 °F 32% 29.99 in 10.0 mi SSW 9.2 mph 19.6 mph N/A   Scattered Clouds
2:35 PM 83.5 °F - 51.1 °F 32% 29.98 in 10.0 mi South 3.5 mph - N/A   Scattered Clouds
2:55 PM 82.4 °F - 51.1 °F 34% 29.98 in 10.0 mi South 12.7 mph 17.3 mph N/A   Scattered Clouds
3:15 PM 82.8 °F - 52.0 °F 34% 29.98 in 10.0 mi South 10.4 mph 18.4 mph N/A Thunderstorm Thunderstorm
3:35 PM 85.6 °F - 51.8 °F 31% 29.97 in 10.0 mi South 11.5 mph 21.9 mph N/A   Clear
3:55 PM 84.4 °F - 51.1 °F 32% 29.97 in 10.0 mi South 13.8 mph 17.3 mph N/A   Clear
4:15 PM 85.8 °F - 52.2 °F 31% 29.96 in 10.0 mi South 13.8 mph - N/A   Scattered Clouds
4:35 PM 82.9 °F 81.8 °F 53.2 °F 36% 29.96 in 10.0 mi South 9.2 mph - N/A   Scattered Clouds
4:55 PM 82.9 °F 81.8 °F 53.2 °F 36% 29.97 in 10.0 mi NE 8.1 mph 11.5 mph N/A Rain Light Rain
5:15 PM 82.0 °F 81.3 °F 53.8 °F 38% 29.96 in 10.0 mi East 12.7 mph - N/A   Scattered Clouds
5:35 PM 79.7 °F - 53.6 °F 40% 29.95 in 10.0 mi NE 8.1 mph 18.4 mph N/A   Clear
5:55 PM 80.6 °F 80.4 °F 54.7 °F 41% 29.96 in 10.0 mi North 5.8 mph - N/A   Scattered Clouds
6:15 PM 79.7 °F - 54.9 °F 42% 29.96 in 10.0 mi Calm Calm - N/A   Scattered Clouds
6:35 PM 79.2 °F - 55.2 °F 44% 29.95 in 10.0 mi SSW 3.5 mph - N/A   Scattered Clouds
6:55 PM 79.7 °F - 54.9 °F 42% 29.95 in 10.0 mi SSE 10.4 mph - N/A   Mostly Cloudy
7:15 PM 77.9 °F - 54.7 °F 45% 29.95 in 10.0 mi SE 11.5 mph 18.4 mph N/A   Scattered Clouds
7:35 PM 77.9 °F - 54.5 °F 44% 29.96 in 10.0 mi SE 10.4 mph 17.3 mph N/A   Mostly Cloudy
7:55 PM 75.4 °F - 56.3 °F 51% 29.97 in 10.0 mi SE 10.4 mph 18.4 mph N/A   Mostly Cloudy
8:15 PM 74.7 °F - 55.8 °F 52% 29.98 in 10.0 mi Calm Calm - N/A   Mostly Cloudy
8:35 PM 73.4 °F - 55.8 °F 54% 29.99 in 10.0 mi ESE 4.6 mph - N/A   Scattered Clouds
8:55 PM 71.8 °F - 55.8 °F 57% 30.00 in 10.0 mi Calm Calm - N/A   Scattered Clouds
9:15 PM 72.5 °F - 56.8 °F 58% 30.01 in 10.0 mi ENE 6.9 mph - N/A   Mostly Cloudy
9:35 PM 72.1 °F - 57.0 °F 59% 30.01 in 10.0 mi East 3.5 mph - N/A   Mostly Cloudy
9:55 PM 71.6 °F - 57.6 °F 61% 30.01 in 10.0 mi SSE 5.8 mph - N/A   Mostly Cloudy
10:15 PM 70.7 °F - 58.1 °F 64% 30.02 in 10.0 mi SE 4.6 mph - N/A   Mostly Cloudy
10:35 PM 70.0 °F - 57.6 °F 65% 30.03 in 10.0 mi South 3.5 mph - N/A   Mostly Cloudy
10:55 PM 70.5 °F - 57.6 °F 63% 30.03 in 10.0 mi Calm Calm - N/A   Scattered Clouds
11:15 PM 68.9 °F - 57.4 °F 67% 30.04 in 10.0 mi South 4.6 mph - N/A   Scattered Clouds
11:35 PM 68.2 °F - 57.4 °F 68% 30.04 in 10.0 mi SSW 3.5 mph - N/A   Clear
11:55 PM 68.4 °F - 57.0 °F 67% 30.04 in 10.0 mi South 3.5 mph - N/A   Clear